BAW4CD EGPD-ENAL

Flight info

Callsign BAW4CD
Flight time 1h 10m
Altitude 19000
Route ADN P600 LESNI/N0432F250 P600 OVDAN/N0446F370 DCT BEREP DCT TUMIM
Aircraft A319/M-SDE3FGHIRWY/LB1

Departure

Time 2026-05-01 12:26
Airport Aberdeen International Airport (EGPD)

Arrival

Time 2026-05-01 13:37
Airport Ålesund Airport (ENAL)
Time Latitude Longitude Altitude Speed Heading
2026-05-01 12:17 57.20135 -2.20312 222 ft 0 kts 248°
2026-05-01 12:17 57.20135 -2.20311 222 ft 2 kts 248°
2026-05-01 12:18 57.20145 -2.20267 220 ft 3 kts 248°
2026-05-01 12:18 57.20145 -2.20221 218 ft 3 kts 296°
2026-05-01 12:18 57.20126 -2.20194 217 ft 3 kts 347°
2026-05-01 12:18 57.20114 -2.20194 218 ft 0 kts 11°
2026-05-01 12:21 57.20123 -2.20191 217 ft 3 kts
2026-05-01 12:22 57.20156 -2.20196 217 ft 6 kts 350°
2026-05-01 12:22 57.20199 -2.20225 217 ft 7 kts 341°
2026-05-01 12:22 57.20249 -2.20260 217 ft 8 kts 339°
2026-05-01 12:22 57.20306 -2.20301 218 ft 9 kts 339°
2026-05-01 12:23 57.20369 -2.20345 219 ft 10 kts 339°
2026-05-01 12:23 57.20438 -2.20387 219 ft 11 kts
2026-05-01 12:23 57.20526 -2.20358 216 ft 13 kts 352°
2026-05-01 12:23 57.20614 -2.20420 218 ft 13 kts 338°
2026-05-01 12:24 57.20698 -2.20480 220 ft 12 kts 339°
2026-05-01 12:24 57.20779 -2.20539 221 ft 12 kts 338°
2026-05-01 12:24 57.20861 -2.20602 223 ft 12 kts 338°
2026-05-01 12:24 57.20938 -2.20660 225 ft 11 kts 338°
2026-05-01 12:25 57.21004 -2.20611 222 ft 14 kts 73°
2026-05-01 12:25 57.21004 -2.20378 211 ft 0 kts 159°
2026-05-01 12:26 57.20154 -2.19737 209 ft 140 kts 156°
2026-05-01 12:26 57.19249 -2.19041 892 ft 140 kts 159°
2026-05-01 12:27 57.18380 -2.18378 1672 ft 138 kts 158°
2026-05-01 12:27 57.17632 -2.15196 2588 ft 173 kts 69°
2026-05-01 12:28 57.19800 -2.13663 3417 ft 199 kts 333°
2026-05-01 12:28 57.21048 -2.15019 3868 ft 218 kts 323°
2026-05-01 12:28 57.23730 -2.18368 4951 ft 254 kts 324°
2026-05-01 12:29 57.25289 -2.20197 5577 ft 272 kts 325°
2026-05-01 12:29 57.26902 -2.22032 6431 ft 278 kts 327°
2026-05-01 12:29 57.30676 -2.22933 8105 ft 297 kts 20°
2026-05-01 12:30 57.33436 -2.17493 9766 ft 302 kts 70°
2026-05-01 12:30 57.34237 -2.13892 10524 ft 309 kts 71°
2026-05-01 12:30 57.35061 -2.10148 10983 ft 326 kts 70°
2026-05-01 12:31 57.35959 -2.06174 11387 ft 344 kts 70°
2026-05-01 12:31 57.36914 -2.02025 11732 ft 362 kts 69°
2026-05-01 12:31 57.37935 -1.97648 12178 ft 375 kts 69°
2026-05-01 12:31 57.38971 -1.93238 12837 ft 381 kts 69°
2026-05-01 12:32 57.40039 -1.88698 13526 ft 385 kts 69°
2026-05-01 12:32 57.42172 -1.79596 14812 ft 394 kts 69°
2026-05-01 12:32 57.43263 -1.74923 15451 ft 397 kts 69°
2026-05-01 12:33 57.44360 -1.70213 16075 ft 401 kts 69°
2026-05-01 12:33 57.45466 -1.65453 16670 ft 405 kts 69°
2026-05-01 12:33 57.46579 -1.60648 17250 ft 409 kts 69°
2026-05-01 12:33 57.47695 -1.55822 17825 ft 413 kts 69°
2026-05-01 12:34 57.48835 -1.50880 18389 ft 416 kts 69°
2026-05-01 12:34 57.49966 -1.45977 18933 ft 420 kts 69°
2026-05-01 12:34 57.51109 -1.41001 19493 ft 423 kts 69°
2026-05-01 12:34 57.52270 -1.35936 20046 ft 427 kts 69°
2026-05-01 12:35 57.53427 -1.30876 20588 ft 429 kts 70°
2026-05-01 12:35 57.54585 -1.25799 21116 ft 432 kts 70°
2026-05-01 12:35 57.55768 -1.20598 21623 ft 435 kts 70°
2026-05-01 12:35 57.56937 -1.15448 22110 ft 438 kts 70°
2026-05-01 12:36 57.58114 -1.10249 22586 ft 441 kts 70°
2026-05-01 12:36 57.59308 -1.04959 23053 ft 444 kts 70°
2026-05-01 12:36 57.60496 -0.99686 23487 ft 447 kts 70°
2026-05-01 12:36 57.61706 -0.94302 23938 ft 450 kts 70°
2026-05-01 12:37 57.62911 -0.88930 24384 ft 453 kts 70°
2026-05-01 12:37 57.64106 -0.83583 24810 ft 455 kts 70°
2026-05-01 12:37 57.65326 -0.78116 25243 ft 458 kts 70°
2026-05-01 12:37 57.66550 -0.72617 25666 ft 461 kts 70°
2026-05-01 12:38 57.67764 -0.67145 26088 ft 463 kts 69°
2026-05-01 12:38 57.69024 -0.61561 26510 ft 466 kts 66°
2026-05-01 12:38 57.70816 -0.56545 26838 ft 473 kts 47°
2026-05-01 12:38 57.73229 -0.52398 27278 ft 474 kts 39°
2026-05-01 12:39 57.75781 -0.48534 27659 ft 477 kts 38°
2026-05-01 12:39 57.78373 -0.44613 28027 ft 480 kts 39°
2026-05-01 12:39 57.80916 -0.40651 28390 ft 482 kts 40°
2026-05-01 12:39 57.83470 -0.36557 28745 ft 485 kts 40°
2026-05-01 12:40 57.85997 -0.32421 29095 ft 487 kts 41°
2026-05-01 12:40 57.88528 -0.28224 29430 ft 489 kts 41°
2026-05-01 12:40 57.91086 -0.23949 29753 ft 491 kts 42°
2026-05-01 12:40 57.93603 -0.19721 30164 ft 490 kts 42°
2026-05-01 12:41 57.96120 -0.15481 30666 ft 488 kts 42°
2026-05-01 12:41 57.98627 -0.11244 31191 ft 485 kts 41°
2026-05-01 12:41 58.01119 -0.07025 31663 ft 482 kts 41°
2026-05-01 12:41 58.03606 -0.02806 32078 ft 481 kts 41°
2026-05-01 12:42 58.06088 0.01413 32475 ft 480 kts 41°
2026-05-01 12:42 58.08541 0.05593 32850 ft 479 kts 41°
2026-05-01 12:42 58.11030 0.09840 33210 ft 479 kts 41°
2026-05-01 12:42 58.13483 0.14034 33559 ft 478 kts 41°
2026-05-01 12:43 58.15942 0.18246 33898 ft 478 kts 41°
2026-05-01 12:43 58.18380 0.22432 34237 ft 477 kts 41°
2026-05-01 12:43 58.20820 0.26626 34572 ft 476 kts 41°
2026-05-01 12:43 58.23279 0.30863 34862 ft 476 kts 41°
2026-05-01 12:44 58.25720 0.35078 35128 ft 476 kts 41°
2026-05-01 12:44 58.28157 0.39292 35393 ft 475 kts 41°
2026-05-01 12:44 58.32997 0.47687 35879 ft 475 kts 41°
2026-05-01 12:45 58.37860 0.56157 36343 ft 474 kts 41°
2026-05-01 12:45 58.40255 0.60342 36560 ft 474 kts 41°
2026-05-01 12:45 58.42694 0.64611 36809 ft 474 kts 41°
2026-05-01 12:46 58.45111 0.68849 37039 ft 474 kts 42°
2026-05-01 12:46 58.47508 0.73060 37116 ft 476 kts 42°
2026-05-01 12:46 58.52377 0.81640 37119 ft 477 kts 42°
2026-05-01 12:47 58.57201 0.90175 37122 ft 477 kts 42°
2026-05-01 12:47 58.62039 0.98767 37126 ft 477 kts 42°
2026-05-01 12:48 58.66890 1.07415 37121 ft 478 kts 42°
2026-05-01 12:48 58.71730 1.16080 37125 ft 478 kts 42°
2026-05-01 12:49 58.76574 1.24788 37130 ft 478 kts 42°
2026-05-01 12:49 58.81402 1.33501 37126 ft 478 kts 42°
2026-05-01 12:50 58.86230 1.42246 37120 ft 479 kts 42°
2026-05-01 12:50 58.91051 1.51016 37130 ft 479 kts 42°
2026-05-01 12:51 58.95869 1.59813 37125 ft 479 kts 42°
2026-05-01 12:52 59.03154 1.72977 37125 ft 478 kts 39°
2026-05-01 12:52 59.11048 1.84528 37128 ft 478 kts 34°
2026-05-01 12:53 59.19092 1.95801 37129 ft 477 kts 34°
2026-05-01 12:54 59.24477 2.03424 37130 ft 478 kts 34°
2026-05-01 12:54 59.32484 2.14837 37131 ft 479 kts 34°
2026-05-01 12:55 59.40495 2.26329 37129 ft 478 kts 34°
2026-05-01 12:56 59.45837 2.34032 37125 ft 478 kts 34°
2026-05-01 12:56 59.51165 2.41745 37126 ft 478 kts 34°
2026-05-01 12:57 59.56495 2.49490 37130 ft 478 kts 34°
2026-05-01 12:57 59.64503 2.61188 37132 ft 479 kts 34°
2026-05-01 12:58 59.69828 2.69006 37130 ft 479 kts 35°
2026-05-01 12:59 59.77782 2.80740 37127 ft 479 kts 35°
2026-05-01 12:59 59.85773 2.92604 37131 ft 479 kts 35°
2026-05-01 13:00 59.93708 3.04460 37128 ft 479 kts 35°
2026-05-01 13:01 60.01642 3.16383 37133 ft 478 kts 35°
2026-05-01 13:02 60.09587 3.28398 37141 ft 480 kts 34°
2026-05-01 13:07 60.67735 4.18660 37144 ft 483 kts 35°
2026-05-01 13:08 60.73027 4.27083 37139 ft 483 kts 35°
2026-05-01 13:08 60.78283 4.35487 37112 ft 483 kts 35°
2026-05-01 13:08 60.80928 4.39729 36805 ft 482 kts 35°
2026-05-01 13:09 60.83523 4.43903 36537 ft 479 kts 35°
2026-05-01 13:09 60.86131 4.48106 36305 ft 477 kts 35°
2026-05-01 13:09 60.88731 4.52304 36067 ft 475 kts 34°
2026-05-01 13:09 60.91298 4.56454 35829 ft 474 kts 34°
2026-05-01 13:10 60.93881 4.60644 35595 ft 474 kts 34°
2026-05-01 13:10 60.96443 4.64806 35363 ft 474 kts 34°
2026-05-01 13:10 60.99014 4.68991 35119 ft 474 kts 35°
2026-05-01 13:10 61.01616 4.73236 34878 ft 475 kts 35°
2026-05-01 13:11 61.04195 4.77451 34641 ft 476 kts 35°
2026-05-01 13:11 61.06777 4.81679 34377 ft 476 kts 35°
2026-05-01 13:11 61.09348 4.85901 34115 ft 478 kts 35°
2026-05-01 13:11 61.11934 4.90155 33855 ft 479 kts 35°
2026-05-01 13:12 61.14514 4.94408 33588 ft 480 kts 35°
2026-05-01 13:12 61.17134 4.98738 33175 ft 482 kts 35°
2026-05-01 13:12 61.19748 5.03068 32560 ft 483 kts 35°
2026-05-01 13:12 61.22361 5.07406 31842 ft 485 kts 35°
2026-05-01 13:13 61.24977 5.11757 31065 ft 488 kts 35°
2026-05-01 13:13 61.27629 5.16180 30236 ft 492 kts 35°
2026-05-01 13:13 61.30255 5.20565 29399 ft 495 kts 35°
2026-05-01 13:13 61.32956 5.25086 28510 ft 498 kts 35°
2026-05-01 13:14 61.35622 5.29558 27899 ft 495 kts 35°
2026-05-01 13:14 61.38255 5.33991 27347 ft 491 kts 35°
2026-05-01 13:14 61.40909 5.38471 26732 ft 488 kts 35°
2026-05-01 13:14 61.43520 5.42889 26172 ft 484 kts 35°
2026-05-01 13:15 61.46093 5.47247 25646 ft 479 kts 35°
2026-05-01 13:15 61.48670 5.51626 25125 ft 474 kts 34°
2026-05-01 13:15 61.51191 5.55912 24618 ft 470 kts 34°
2026-05-01 13:15 61.53711 5.60207 24109 ft 465 kts 34°
2026-05-01 13:16 61.56169 5.64402 23600 ft 462 kts 34°
2026-05-01 13:16 61.58661 5.68662 23078 ft 458 kts 36°
2026-05-01 13:16 61.61102 5.72848 22573 ft 455 kts 36°
2026-05-01 13:17 61.68339 5.85313 21049 ft 447 kts 36°
2026-05-01 13:17 61.70726 5.89340 20540 ft 443 kts 32°
2026-05-01 13:18 61.75905 5.95962 19568 ft 432 kts 20°
2026-05-01 13:18 61.78608 5.98609 19072 ft 427 kts 18°
2026-05-01 13:18 61.81287 6.01123 18594 ft 424 kts 18°
2026-05-01 13:18 61.83963 6.03635 18117 ft 422 kts 18°
2026-05-01 13:19 61.86646 6.06177 17623 ft 421 kts 18°
2026-05-01 13:19 61.89281 6.08701 17139 ft 419 kts 18°
2026-05-01 13:19 61.94552 6.13791 16148 ft 416 kts 18°
2026-05-01 13:20 61.97145 6.16307 15651 ft 415 kts 19°
2026-05-01 13:20 61.99761 6.18855 15134 ft 414 kts 18°
2026-05-01 13:20 62.02362 6.21391 14569 ft 414 kts 19°
2026-05-01 13:21 62.07587 6.26502 13353 ft 417 kts 19°
2026-05-01 13:21 62.10206 6.29068 12724 ft 418 kts 19°
2026-05-01 13:21 62.12845 6.31660 12112 ft 416 kts 19°
2026-05-01 13:21 62.15399 6.34186 11656 ft 399 kts 19°
2026-05-01 13:22 62.17853 6.36618 10973 ft 384 kts 19°
2026-05-01 13:22 62.20189 6.38939 10722 ft 356 kts 19°
2026-05-01 13:22 62.22339 6.41080 10539 ft 332 kts 19°
2026-05-01 13:22 62.24425 6.43145 10385 ft 327 kts 19°
2026-05-01 13:23 62.26467 6.45156 10259 ft 325 kts 18°
2026-05-01 13:23 62.28512 6.47173 9898 ft 328 kts 19°
2026-05-01 13:23 62.30602 6.49241 9428 ft 332 kts 19°
2026-05-01 13:23 62.32709 6.51334 8986 ft 335 kts 20°
2026-05-01 13:24 62.34803 6.53422 8560 ft 336 kts 20°
2026-05-01 13:24 62.36934 6.55483 8177 ft 335 kts 19°
2026-05-01 13:24 62.39039 6.57463 7824 ft 330 kts 20°
2026-05-01 13:25 62.43037 6.61231 7070 ft 302 kts 20°
2026-05-01 13:25 62.44933 6.63033 6690 ft 290 kts 22°
2026-05-01 13:25 62.46694 6.64879 6314 ft 279 kts 25°
2026-05-01 13:25 62.48436 6.66771 5950 ft 278 kts 26°
2026-05-01 13:26 62.50116 6.68612 5854 ft 267 kts 26°
2026-05-01 13:26 62.51733 6.70386 5847 ft 254 kts 25°
2026-05-01 13:26 62.53261 6.72059 5837 ft 240 kts 25°
2026-05-01 13:26 62.54703 6.73637 5832 ft 228 kts 25°
2026-05-01 13:27 62.56096 6.75156 5832 ft 222 kts 25°
2026-05-01 13:27 62.57503 6.76395 5805 ft 216 kts
2026-05-01 13:27 62.60215 6.74906 5289 ft 202 kts 326°
2026-05-01 13:28 62.62716 6.72130 4816 ft 203 kts 326°
2026-05-01 13:28 62.63974 6.70808 4641 ft 202 kts 327°
2026-05-01 13:29 62.66433 6.67954 4644 ft 190 kts 307°
2026-05-01 13:29 62.67213 6.63185 4035 ft 168 kts 256°
2026-05-01 13:30 62.65411 6.54220 3011 ft 160 kts 240°
2026-05-01 13:31 62.64458 6.49826 3018 ft 160 kts 240°
2026-05-01 13:31 62.63120 6.43589 2952 ft 136 kts 239°
2026-05-01 13:32 62.62310 6.39855 2734 ft 138 kts 239°
2026-05-01 13:33 62.61107 6.34292 2226 ft 132 kts 238°
2026-05-01 13:33 62.60400 6.30994 1876 ft 117 kts 236°
2026-05-01 13:34 62.59703 6.27817 1584 ft 116 kts 237°
2026-05-01 13:34 62.59011 6.24666 1274 ft 116 kts 239°
2026-05-01 13:35 62.58324 6.21504 965 ft 115 kts 240°
2026-05-01 13:35 62.57980 6.19938 814 ft 115 kts 240°
2026-05-01 13:35 62.57299 6.16808 515 ft 115 kts 242°
2026-05-01 13:36 62.56952 6.15255 360 ft 114 kts 242°
2026-05-01 13:36 62.56617 6.13704 175 ft 113 kts 244°
2026-05-01 13:36 62.56016 6.10916 68 ft 53 kts 245°
2026-05-01 13:37 62.55946 6.10676 66 ft 8 kts 122°
2026-05-01 13:37 62.55918 6.10866 67 ft 19 kts 104°
2026-05-01 13:37 62.55896 6.11099 68 ft 12 kts 86°
2026-05-01 13:37 62.55917 6.11248 69 ft 8 kts 90°
2026-05-01 13:38 62.55872 6.11316 70 ft 0 kts 155°